This is the latest recevied weather packets stored in our database for station/object XQ6AK-15. If no packets are shown the sender has not sent any weather packets the latest 10 day(s).
| Time | Temp. | Humidity | Pressure | Rain* | Wind** | Luminosity | Snow |
|---|---|---|---|---|---|---|---|
| 1787458808 | 1.67° C | 99% | 1017.5 hPa | 0 mm | - | 0 W/m² | - |
| 1787458503 | 1.67° C | 99% | 1017.7 hPa | 0 mm | - | 0 W/m² | - |
| 1787458198 | 1.11° C | 99% | 1017.6 hPa | 0 mm | - | 0 W/m² | - |
| 1787457894 | 1.67° C | 99% | 1017.4 hPa | 0 mm | - | 0 W/m² | - |
| 1787457589 | 1.67° C | 99% | 1017.6 hPa | 0 mm | - | 0 W/m² | - |
| 1787457285 | 1.67° C | 99% | 1017.9 hPa | 0 mm | - | 0 W/m² | - |
| 1787456980 | 1.67° C | 99% | 1017.9 hPa | 0 mm | - | 0 W/m² | - |
| 1787456675 | 1.67° C | 99% | 1017.9 hPa | 0 mm | - | 0 W/m² | - |
| 1787456371 | 1.67° C | 99% | 1018 hPa | 0 mm | - | 0 W/m² | - |
| 1787456066 | 1.67° C | 99% | 1018.2 hPa | 0 mm | - | 0 W/m² | - |
| 1787455760 | 2.22° C | 99% | 1018 hPa | 0 mm | - | 0 W/m² | - |
| 1787455456 | 2.22° C | 99% | 1017.9 hPa | 0 mm | - | 0 W/m² | - |
| 1787455152 | 1.67° C | 99% | 1018 hPa | 0 mm | - | 0 W/m² | - |
| 1787454848 | 2.22° C | 99% | 1018 hPa | 0 mm | - | 0 W/m² | - |
| 1787454544 | 1.67° C | 99% | 1017.9 hPa | 0 mm | - | 0 W/m² | - |
| 1787454239 | 2.22° C | 99% | 1017.9 hPa | 0 mm | - | 0 W/m² | - |
| 1787453938 | 2.22° C | 99% | 1018 hPa | 0 mm | - | 0 W/m² | - |
| 1787453634 | 2.22° C | 99% | 1018 hPa | 0 mm | - | 0 W/m² | - |
| 1787453330 | 2.78° C | 99% | 1018.1 hPa | 0 mm | - | 0 W/m² | - |
| 1787453029 | 2.78° C | 99% | 1018 hPa | 0 mm | - | 0 W/m² | - |
| 1787452724 | 2.22° C | 99% | 1018.1 hPa | 0 mm | - | 0 W/m² | - |
| 1787452423 | 2.78° C | 99% | 1018.1 hPa | 0 mm | - | 0 W/m² | - |
| 1787452119 | 2.78° C | 99% | 1017.9 hPa | 0 mm | - | 0 W/m² | - |
| 1787451813 | 2.78° C | 99% | 1018 hPa | 0 mm | - | 0 W/m² | - |
| 1787451508 | 2.78° C | 99% | 1017.8 hPa | 0 mm | - | 0 W/m² | - |
* Rain latest hour (hover to see other rain measurements)
** Current wind speed in m/s (hover to see current wind gust speed)